Weather History for Guatemala Aeropuertola Aurora, Guatemala

Change the Weather History Date:

Tuesday, July 2, 2013

  Actual Average Record
Temperature  
Mean Temperature 65 °F -  
Max Temperature 69 °F 74 °F - ()
Min Temperature 61 °F 60 °F - ()
Growing Degree Days 15 (Base 50)    
Moisture  
Dew Point 62 °F    
Average Humidity 90    
Maximum Humidity 100    
Minimum Humidity 78    
Precipitation  
Precipitation 0.08 in - - ()
Sea Level Pressure  
Sea Level Pressure 30.22 in    
Wind  
Wind Speed 5 mph ()    
Max Wind Speed 14 mph    
Max Gust Speed -    
Visibility 4.7 miles    
Events Rain , Thunderstorm    
T = Trace of Precipitation, MM = Missing Value Source: Averaged Metar Reports

Daily Weather History Graph

Daily Weather History Graph

Search for Another Location

Airport:

Trip Planner

Search our weather history database for the weather conditions in past years. The results will help you decide how hot, cold, wet, or windy it might be!

Date:

Astronomy

Jul. 02, 2013 Rise Set
Actual Time 5:37 AM CST 6:35 PM CST
Civil Twilight 5:13 AM CST 6:58 PM CST
Nautical Twilight 4:45 AM CST 7:26 PM CST
Astronomical Twilight 4:17 AM CST 7:55 PM CST
Moon 1:14 AM CST (7/2) 2:09 PM CST (7/2)
Length of Visible Light 13h 45m
Length of Day
12h 58m
Waning Crescent, 26% of the Moon is Illuminated
Jul 2
Waning Crescent
Jul 8
New
Jul 15
First Quarter
Jul 22
Full
Jul 29
Last Quarter

Hourly Weather History & Observations

Time (CST) Temp. Dew Point Humidity Pressure Visibility Wind Dir Wind Speed Gust Speed Precip Events Conditions
12:00 AM 62.6 °F 62.6 °F 100% 30.27 in 6.2 mi North 4.6 mph - N/A Rain Light Rain
1:00 AM 62.6 °F 62.6 °F 100% 30.24 in 5.0 mi North 6.9 mph - N/A Rain Light Rain
2:00 AM 62.6 °F 60.8 °F 94% 30.21 in 6.2 mi North 6.9 mph - N/A   Light Drizzle
3:00 AM 62.6 °F 60.8 °F 94% 30.21 in 6.2 mi North 6.9 mph - N/A   Mostly Cloudy
4:00 AM 62.6 °F 57.2 °F 82% 30.21 in 6.2 mi North 9.2 mph - N/A   Mostly Cloudy
5:00 AM 62.6 °F 60.8 °F 94% 30.21 in 6.2 mi North 9.2 mph - N/A   Mostly Cloudy
6:00 AM 64 °F 60 °F 84% 29.91 in 25 mi North 6.9 mph - -   Partly Cloudy
6:00 AM 64.4 °F 60.8 °F 88% 30.24 in 6.2 mi North 6.9 mph - N/A   Mostly Cloudy
7:00 AM 62.6 °F 60.8 °F 94% 30.24 in 6.2 mi North 6.9 mph - N/A   Mostly Cloudy
8:00 AM 64.4 °F 60.8 °F 88% 30.24 in 6.2 mi NNE 9.2 mph - N/A   Mostly Cloudy
9:00 AM 66.2 °F 62.6 °F 88% 30.27 in 6.2 mi NNE 6.9 mph - N/A   Mostly Cloudy
10:00 AM 66.2 °F 60.8 °F 83% 30.27 in 6.2 mi North 11.5 mph - N/A   Overcast
10:10 AM - - N/A% - 6.2 mi North 6.9 mph - N/A   Light Drizzle
10:30 AM - - N/A% - 5.0 mi NNE 11.5 mph - N/A   Drizzle
10:45 AM - - N/A% - 6.2 mi North 4.6 mph - N/A   Mostly Cloudy
11:00 AM 66.2 °F 64.4 °F 94% 30.27 in 6.2 mi North 6.9 mph - N/A   Scattered Clouds
11:35 AM - - N/A% - 6.2 mi North 6.9 mph - N/A   Light Drizzle
12:00 PM 68 °F 63 °F 78% 29.95 in 25 mi NNW 4.6 mph - - Rain Light Drizzle
12:00 PM 68.0 °F 62.6 °F 83% 30.27 in 6.2 mi NNW 4.6 mph - N/A   Drizzle
12:08 PM - - N/A% - 3.1 mi NNE 4.6 mph - N/A Rain Light Rain
12:26 PM - - N/A% - 4.3 mi NE 4.6 mph - N/A   Light Drizzle
12:33 PM - - N/A% - 1.2 mi NNE 4.6 mph - N/A Rain Light Rain
12:45 PM - - N/A% - 3.7 mi NNW 4.6 mph - N/A   Light Drizzle
1:00 PM 68.0 °F 64.4 °F 88% 30.24 in 5.0 mi North 4.6 mph - N/A   Light Drizzle
1:33 PM - - N/A% - 6.2 mi North 6.9 mph - N/A   Mostly Cloudy
1:45 PM - - N/A% - 6.2 mi North 5.8 mph - N/A   Light Drizzle
2:00 PM 68.0 °F 62.6 °F 83% 30.24 in 3.7 mi North 4.6 mph - N/A   Drizzle
2:12 PM - - N/A% - 2.5 mi Variable 3.5 mph - N/A   Drizzle
3:00 PM 68.0 °F 64.4 °F 88% 30.21 in 3.1 mi Variable 2.3 mph - N/A   Light Drizzle
3:16 PM - - N/A% - 4.3 mi Variable 2.3 mph - N/A   Mostly Cloudy
4:00 PM 69.8 °F 62.6 °F 78% 30.18 in 6.2 mi Variable 2.3 mph - N/A   Mostly Cloudy
4:04 PM - - N/A% - 0.5 mi SE 13.8 mph - N/A Rain Heavy Rain
4:10 PM - - N/A% - 0.5 mi South 6.9 mph - N/A Rain Heavy Rain
4:21 PM - - N/A% - 1.9 mi SSE 4.6 mph - N/A Rain , Thunderstorm Thunderstorms and Rain
5:00 PM 64.4 °F 64.4 °F 100% 30.21 in 1.2 mi Variable 2.3 mph - N/A Rain , Thunderstorm Thunderstorms and Rain
5:10 PM - - N/A% - 3.7 mi Variable 2.3 mph - N/A   Drizzle
6:00 PM 64.4 °F 62.6 °F 94% 30.21 in 6.2 mi Variable 3.5 mph - N/A   Mostly Cloudy
7:00 PM 64.4 °F 62.6 °F 94% 30.24 in 6.2 mi Calm Calm - N/A   Overcast
8:00 PM 64.4 °F 62.6 °F 94% 30.27 in 6.2 mi Calm Calm - N/A   Scattered Clouds
9:00 PM 64.4 °F 62.6 °F 94% 30.27 in 6.2 mi Calm Calm - N/A   Mostly Cloudy
9:30 PM - - N/A% - 3.1 mi Calm Calm - N/A   Mostly Cloudy
10:00 PM 64.4 °F 62.6 °F 94% 30.30 in 3.1 mi Calm Calm - N/A   Mostly Cloudy
11:00 PM 64.4 °F 62.6 °F 94% 30.30 in 2.5 mi Calm Calm - N/A   Scattered Clouds